When you browse on this site, cookies collect data to enhance your experience and personalize the content and advertising you see.
Visit our Privacy Policy to learn more. By continuing to use the site, you agree to this use of cookies and data.
  • In Belgium
  • List of Countries
  • For 7 days
  • Water Temperature
  • Satellite Maps
  • Weather Map
  • Weather Widgets
  • user-avatar
    Login

    Hourly Weather La Guaira

    Today, 17 December, Monday

    Time Temperature Precipitation Wind Pressure Humidity
    00:00 +22°C° 0.1 mm 4 mps 713 mmHg 95%
    01:00 +22°C° 0.1 mm 4 mps 712 mmHg 95%
    02:00 +21°C° 0.1 mm 4 mps 712 mmHg 95%
    03:00 +21°C° 0.1 mm 4 mps 712 mmHg 95%
    04:00 +21°C° 0.1 mm 4 mps 712 mmHg 95%
    05:00 +21°C° 0.1 mm 4 mps 712 mmHg 95%
    06:00 +22°C° 0 mm 4 mps 713 mmHg 93%
    07:00 +22°C° 0 mm 4 mps 713 mmHg 91%
    08:00 +22°C° 0 mm 4 mps 713 mmHg 89%
    09:00 +25°C° 0 mm 4 mps 714 mmHg 80%
    10:00 +27°C° 0 mm 4 mps 714 mmHg 71%
    11:00 +29°C° 0 mm 4 mps 714 mmHg 61%
    12:00 +29°C° 0.2 mm 4 mps 714 mmHg 62%
    13:00 +29°C° 0.2 mm 4 mps 713 mmHg 62%
    14:00 +30°C° 0.2 mm 4 mps 713 mmHg 63%
    15:00 +29°C° 0.6 mm 4 mps 712 mmHg 66%
    16:00 +28°C° 0.6 mm 4 mps 712 mmHg 70%
    17:00 +27°C° 0.6 mm 4 mps 711 mmHg 73%
    18:00 +26°C° 0 mm 4 mps 711 mmHg 79%
    19:00 +25°C° 0 mm 4 mps 712 mmHg 85%
    20:00 +22°C° 0 mm 4 mps 712 mmHg 91%
    21:00 +22°C° 0 mm 4 mps 712 mmHg 92%
    22:00 +22°C° 0 mm 4 mps 712 mmHg 93%
    23:00 +22°C° 0 mm 4 mps 712 mmHg 94%

    Tomorrow, 18 December, Tuesday

    Time Temperature Precipitation Wind Pressure Humidity
    00:00 +22°C° 0.1 mm 4 mps 712 mmHg 94%
    01:00 +22°C° 0.1 mm 4 mps 712 mmHg 95%
    02:00 +22°C° 0.1 mm 4 mps 712 mmHg 95%
    03:00 +21°C° 0.1 mm 4 mps 712 mmHg 95%
    04:00 +21°C° 0.1 mm 4 mps 712 mmHg 95%
    05:00 +21°C° 0.1 mm 4 mps 712 mmHg 95%
    06:00 +22°C° 0.1 mm 4 mps 712 mmHg 93%
    07:00 +22°C° 0.1 mm 4 mps 713 mmHg 92%
    08:00 +23°C° 0.1 mm 4 mps 713 mmHg 90%
    09:00 +25°C° 0 mm 4 mps 713 mmHg 83%
    10:00 +27°C° 0 mm 4 mps 714 mmHg 75%
    11:00 +29°C° 0 mm 4 mps 714 mmHg 67%
    12:00 +29°C° 0 mm 4 mps 713 mmHg 65%
    13:00 +30°C° 0 mm 4 mps 713 mmHg 63%
    14:00 +30°C° 0 mm 5 mps 712 mmHg 61%
    15:00 +29°C° 0 mm 4 mps 711 mmHg 65%
    16:00 +28°C° 0 mm 4 mps 711 mmHg 70%
    17:00 +27°C° 0 mm 4 mps 710 mmHg 74%
    18:00 +26°C° 0 mm 4 mps 711 mmHg 80%
    19:00 +25°C° 0 mm 4 mps 711 mmHg 87%
    20:00 +23°C° 0 mm 4 mps 711 mmHg 93%
    21:00 +23°C° 0.1 mm 4 mps 712 mmHg 93%
    22:00 +23°C° 0.1 mm 4 mps 712 mmHg 94%
    23:00 +22°C° 0.1 mm 4 mps 713 mmHg 95%

    Day after tomorrow, 19 December, Wednesday

    Time Temperature Precipitation Wind Pressure Humidity
    00:00 +22°C° 0.1 mm 4 mps 713 mmHg 95%
    01:00 +22°C° 0.1 mm 4 mps 712 mmHg 95%
    02:00 +22°C° 0.1 mm 3 mps 712 mmHg 96%
    03:00 +22°C° 0.1 mm 3 mps 712 mmHg 96%
    04:00 +22°C° 0.1 mm 4 mps 712 mmHg 96%
    05:00 +22°C° 0.1 mm 4 mps 711 mmHg 96%
    06:00 +22°C° 0 mm 4 mps 712 mmHg 94%
    07:00 +22°C° 0 mm 4 mps 713 mmHg 93%
    08:00 +23°C° 0 mm 4 mps 713 mmHg 91%
    09:00 +25°C° 0 mm 4 mps 713 mmHg 83%
    10:00 +27°C° 0 mm 4 mps 714 mmHg 75%
    11:00 +29°C° 0 mm 4 mps 714 mmHg 67%
    12:00 +29°C° 0 mm 4 mps 713 mmHg 66%
    13:00 +29°C° 0 mm 4 mps 712 mmHg 65%
    14:00 +30°C° 0 mm 5 mps 711 mmHg 64%
    15:00 +29°C° 0.1 mm 5 mps 711 mmHg 68%
    16:00 +28°C° 0.1 mm 5 mps 710 mmHg 73%
    17:00 +27°C° 0.1 mm 5 mps 710 mmHg 78%
    18:00 +26°C° 0 mm 5 mps 710 mmHg 83%
    19:00 +25°C° 0 mm 4 mps 711 mmHg 88%
    20:00 +23°C° 0 mm 4 mps 711 mmHg 93%
    21:00 +23°C° 0.1 mm 4 mps 711 mmHg 94%
    22:00 +23°C° 0.1 mm 4 mps 712 mmHg 94%
    23:00 +23°C° 0.1 mm 4 mps 712 mmHg 95%

    20 December, Thursday

    Time Temperature Precipitation Wind Pressure Humidity
    00:00 +23°C° 0.1 mm 4 mps 712 mmHg 95%
    01:00 +23°C° 0.1 mm 4 mps 711 mmHg 95%
    02:00 +22°C° 0.1 mm 4 mps 711 mmHg 96%
    03:00 +22°C° 0 mm 4 mps 711 mmHg 96%
    04:00 +22°C° 0 mm 4 mps 711 mmHg 96%
    05:00 +22°C° 0 mm 4 mps 711 mmHg 95%
    06:00 +22°C° 0 mm 4 mps 712 mmHg 94%
    07:00 +24°C° 0 mm 3 mps 712 mmHg 92%
    08:00 +24°C° 0 mm 3 mps 713 mmHg 90%
    09:00 +26°C° 0 mm 4 mps 713 mmHg 81%
    10:00 +27°C° 0 mm 4 mps 713 mmHg 73%
    11:00 +29°C° 0 mm 4 mps 714 mmHg 64%
    12:00 +29°C° 0.1 mm 4 mps 713 mmHg 66%
    13:00 +29°C° 0.1 mm 4 mps 712 mmHg 67%
    14:00 +29°C° 0.1 mm 5 mps 711 mmHg 69%
    15:00 +28°C° 0.1 mm 5 mps 711 mmHg 72%
    16:00 +28°C° 0.1 mm 5 mps 710 mmHg 74%
    17:00 +27°C° 0.1 mm 5 mps 710 mmHg 77%
    18:00 +26°C° 0 mm 4 mps 710 mmHg 83%
    19:00 +25°C° 0 mm 4 mps 711 mmHg 88%
    20:00 +23°C° 0 mm 4 mps 711 mmHg 93%
    21:00 +23°C° 0.1 mm 4 mps 711 mmHg 94%
    22:00 +23°C° 0.1 mm 4 mps 711 mmHg 94%
    23:00 +23°C° 0.1 mm 4 mps 712 mmHg 95%

    21 December, Friday

    Time Temperature Precipitation Wind Pressure Humidity
    00:00 +23°C° 0.1 mm 4 mps 711 mmHg 95%
    01:00 +23°C° 0.1 mm 4 mps 711 mmHg 95%
    02:00 +22°C° 0.1 mm 4 mps 711 mmHg 96%
    03:00 +22°C° 0.1 mm 4 mps 711 mmHg 96%
    04:00 +22°C° 0.1 mm 4 mps 711 mmHg 96%
    05:00 +22°C° 0.1 mm 4 mps 711 mmHg 96%
    06:00 +22°C° 0 mm 4 mps 711 mmHg 94%
    07:00 +24°C° 0 mm 3 mps 712 mmHg 92%
    08:00 +24°C° 0 mm 3 mps 712 mmHg 91%
    09:00 +26°C° 0 mm 3 mps 713 mmHg 80%
    10:00 +28°C° 0 mm 3 mps 713 mmHg 69%
    11:00 +30°C° 0 mm 3 mps 713 mmHg 58%
    12:00 +30°C° 0 mm 4 mps 712 mmHg 57%
    13:00 +30°C° 0 mm 4 mps 712 mmHg 57%
    14:00 +30°C° 0 mm 5 mps 711 mmHg 56%
    15:00 +29°C° 0 mm 5 mps 711 mmHg 61%
    16:00 +28°C° 0 mm 5 mps 710 mmHg 67%
    17:00 +27°C° 0 mm 5 mps 710 mmHg 72%
    18:00 +26°C° 0.1 mm 4 mps 710 mmHg 79%
    19:00 +25°C° 0.1 mm 4 mps 711 mmHg 86%
    20:00 +23°C° 0.1 mm 4 mps 711 mmHg 92%
    21:00 +23°C° 0.1 mm 4 mps 711 mmHg 93%
    22:00 +23°C° 0.1 mm 4 mps 711 mmHg 94%
    23:00 +23°C° 0.1 mm 4 mps 712 mmHg 94%

    22 December, Saturday

    Time Temperature Precipitation Wind Pressure Humidity
    00:00 +23°C° 0.1 mm 4 mps 711 mmHg 95%
    01:00 +22°C° 0.1 mm 4 mps 711 mmHg 95%
    02:00 +22°C° 0.1 mm 4 mps 711 mmHg 95%
    03:00 +22°C° 0.1 mm 4 mps 711 mmHg 96%
    04:00 +22°C° 0.1 mm 4 mps 711 mmHg 96%
    05:00 +22°C° 0.1 mm 4 mps 711 mmHg 96%
    06:00 +22°C° 0.1 mm 4 mps 712 mmHg 95%
    07:00 +22°C° 0.1 mm 4 mps 712 mmHg 94%
    08:00 +22°C° 0.1 mm 4 mps 713 mmHg 93%
    09:00 +23°C° 0.1 mm 4 mps 713 mmHg 89%
    10:00 +25°C° 0.1 mm 4 mps 713 mmHg 85%
    11:00 +26°C° 0.1 mm 4 mps 713 mmHg 81%
    12:00 +27°C° 0 mm 4 mps 713 mmHg 74%
    13:00 +28°C° 0 mm 4 mps 712 mmHg 67%
    14:00 +29°C° 0 mm 4 mps 711 mmHg 60%
    15:00 +29°C° 0 mm 4 mps 711 mmHg 63%
    16:00 +28°C° 0 mm 4 mps 711 mmHg 65%
    17:00 +27°C° 0 mm 4 mps 710 mmHg 67%
    18:00 +26°C° 0 mm 4 mps 710 mmHg 75%
    19:00 +23°C° 0 mm 4 mps 711 mmHg 82%
    20:00 +22°C° 0 mm 3 mps 711 mmHg 90%
    21:00 +22°C° 0.1 mm 3 mps 711 mmHg 91%
    22:00 +22°C° 0.1 mm 3 mps 711 mmHg 92%
    23:00 +22°C° 0.1 mm 3 mps 712 mmHg 94%
    Show more